Weather observations for the past three days for
Montauk, Montauk Airport
Imperial (Metric)
Date Time (edt) Wind (mph) Vis. (mi.) Weather Sky Cond. Temperature (ºF) Relative Humidity Wind Chill (°F) Heat Index (°F) Pressure Precipitation (in)
Air Dwpt 6 hour altimeter (in) sea level (mb) 1 hr 3 hr 6 hr
Max. Min.
16 10:54 W 5 0.00 NULL NULL 87.1 73.9 65% 95 29.84 1010.6
16 09:54 W 6 0.00 NULL NULL 86 73 65% 93 29.83 1010.2
16 08:54 Vrbl 6 0.00 NULL NULL 84 72 67% 90 29.85 1010.6
16 07:54 Vrbl 3 0.00 NULL NULL 81 73.9 81 77 79% 86 29.85 1010.6
16 06:54 Vrbl 6 0.00 NULL NULL 78.1 73 85% 81 29.84 1010.3
16 05:54 SW 6 0.00 NULL NULL 77 72 85% 78 29.81 1009.5
16 04:54 SW 5 0.00 NULL NULL 78.1 73 85% 81 29.8 1009.1
16 03:54 SW 3 0.00 NULL NULL 77 73 88% 78 29.79 1008.8
16 02:54 SW 3 0.00 NULL NULL 78.1 73 85% 81 29.79 1008.7
16 01:54 SW 6 0.00 NULL NULL 77 73.9 79 77 90% 78 29.8 1009.0
16 00:54 Vrbl 7 0.00 NULL NULL 78.1 73.9 87% 81 29.8 1009.1
15 23:54 Vrbl 6 0.00 NULL NULL 78.1 75 90% 81 29.81 1009.5
15 22:54 Vrbl 5 0.00 NULL NULL 78.1 75 90% 81 29.82 1009.8
15 21:54 Vrbl 6 0.00 NULL NULL 79 75.9 90% 83 29.83 1010.1
15 20:54 SW 6 0.00 NULL NULL 79 75.9 90% 83 29.83 1010.0
15 19:54 Vrbl 5 0.00 NULL NULL 79 75 84.9 79 88% 83 29.82 1009.7
15 18:54 Vrbl 7 0.00 NULL NULL 80.1 75.9 87% 85 29.81 1009.4
15 17:54 Vrbl 7 0.00 NULL NULL 80.1 75.9 87% 85 29.83 1010.0
15 16:54 SW 9 0.00 NULL NULL 82 75.9 82% 89 29.84 1010.3
15 15:54 Vrbl 7 0.00 NULL NULL 82 75.9 82% 89 29.85 1010.8
15 14:54 SW 6 0.00 NULL NULL 84 75.9 77% 93 29.87 1011.6
15 13:54 SW 9 0.00 NULL NULL 84 75.9 86 77 77% 93 29.89 1012.1
15 12:54 SW 8 0.00 NULL NULL 86 75.9 72% 96 29.91 1012.7
15 11:54 Vrbl 5 0.00 NULL NULL 86 73.9 67% 94 29.91 1012.8
15 10:54 Vrbl 5 0.00 NULL NULL 82.9 73.9 74% 89 29.92 1013.0
15 09:54 Vrbl 3 0.00 NULL NULL 78.1 72 82% 80 29.92 1013.0
15 08:54 Vrbl 3 0.00 NULL NULL 78.1 73.9 87% 81 29.94 1013.7
15 07:54 SW 10 G 20 0.00 NULL NULL 79 73 80.1 75 82% 82 29.94 1013.9
15 06:54 S 5 0.00 NULL NULL 77 72 85% 78 29.93 1013.4
15 05:54 SW 3 0.00 NULL NULL 77 72 85% 78 29.93 1013.3
15 04:54 SW 6 0.00 NULL NULL 75.9 71.1 85% 76 29.93 1013.5
15 03:54 SW 8 0.00 NULL NULL 75.9 71.1 85% 76 29.93 1013.3
15 02:54 SW 3 0.00 NULL NULL 75.9 70 82% 77 29.93 1013.3
15 01:54 SW 5 0.00 NULL NULL 75.9 71.1 81 75 85% 76 29.94 1013.9
15 00:54 Vrbl 3 0.00 NULL NULL 75 73 94% 73 29.95 1014.2
14 23:54 S 5 0.00 NULL NULL 75.9 73 91% 76 29.96 1014.4
14 22:54 Vrbl 5 0.00 NULL NULL 75.9 73 91% 76 29.97 1014.9
14 21:54 SW 7 0.00 NULL NULL 77 73 88% 78 29.97 1014.8
14 20:54 Vrbl 5 0.00 NULL NULL 79 73 82% 82 29.97 1014.8
14 19:54 SW 6 0.00 NULL NULL 81 66.9 89.1 81 62% 83 29.96 1014.5
14 18:54 SW 8 0.00 NULL NULL 82.9 68 61% 86 29.97 1014.8
14 17:54 Vrbl 5 0.00 NULL NULL 84.9 69.1 59% 89 29.97 1014.9
14 16:54 Vrbl 3 0.00 NULL NULL 88 69.1 54% 92 29.97 1014.8
14 15:54 W 5 0.00 NULL NULL 89.1 63 42% 90 29.98 1015.2
14 14:54 SW 7 0.00 NULL NULL 88 62.1 42% 88 29.99 1015.6
14 13:54 SW 5 0.00 NULL NULL 88 64 89.1 77 45% 89 30 1015.8
14 12:54 W 7 0.00 NULL NULL 87.1 62.1 43% 88 30.02 1016.5
14 11:54 Vrbl 6 0.00 NULL NULL 84.9 62.1 46% 85 30.04 1017.2
14 10:54 NW 3 0.00 NULL NULL 84 66 55% 86 30.05 1017.6
14 09:54 NW 6 0.00 NULL NULL 80.1 69.1 69% 83 30.05 1017.7
14 08:54 NW 3 0.00 NULL NULL 79 71.1 77% 82 30.06 1017.7
14 07:54 W 5 0.00 NULL NULL 78.1 73 78.1 73 85% 81 30.06 1017.8
14 06:54 Calm 0.00 NULL NULL 75.9 73 91% 76 30.05 1017.5
14 05:54 Calm 0.00 NULL NULL 73.9 72 94% 30.04 1017.3
14 04:54 W 5 0.00 NULL NULL 73.9 72 94% 30.04 1017.2
14 03:54 Calm 0.00 NULL NULL 73.9 72 94% 30.04 1017.3
14 02:54 Calm 0.00 NULL NULL 73 71.1 94% 30.04 1017.3
14 01:54 Calm 0.00 NULL NULL 73 71.1 77 73 94% 30.06 1017.7
14 00:54 Calm 0.00 NULL NULL 73.9 72 94% 30.07 1018.3
13 23:54 Calm 0.00 NULL NULL 75 72 90% 74 30.08 1018.7
13 22:54 SW 5 0.00 NULL NULL 75 72 90% 74 30.08 1018.5
13 21:54 SW 3 0.00 NULL NULL 75 73 94% 73 30.08 1018.4
13 20:54 SW 5 0.00 NULL NULL 75.9 72 88% 76 30.09 1018.7
13 19:54 Vrbl 3 0.00 NULL NULL 77 73 80.1 75.9 88% 78 30.09 1018.9 0.05
13 18:54 Vrbl 5 0.00 NULL NULL 77 73 88% 78 30.09 1018.8
13 17:54 SW 5 0.00 NULL NULL 77 73 88% 78 30.1 1019.1
13 16:54 Vrbl 5 0.00 NULL NULL 77 73 88% 78 30.11 1019.4 0.05
13 15:54 Calm 0.00 NULL NULL 79 73.9 85% 83 30.1 1019.3 0.01
13 14:54 Vrbl 3 0.00 NULL NULL 77 73.9 90% 78 30.12 1020.0 0.04
13 13:54 Vrbl 3 0.00 NULL NULL 78.1 73.9 80.1 75 87% 81 30.14 1020.7 0.07 0.36
13 12:54 Vrbl 3 0.00 NULL NULL 78.1 75 90% 81 30.17 1021.6 0.04
13 11:54 Vrbl 3 0.00 NULL NULL 78.1 73.9 87% 81 30.18 1021.9
Date Time (edt) Wind (mph) Vis. (mi.) Weather Sky Cond. Air Dwpt Max. Min. Relative Humidity Wind Chill (°F) Heat Index (°F) altimeter (in) sea level (mb) 1 hr 3 hr 6 hr
6 hour
Temperature (ºF) Pressure Precipitation (in)